Hourly Data Report for October 20, 2014

All times are specified in Local Standard Time (LST). Add 1 hour to adjust for Daylight Saving Time where and when it is observed.

TORONTO INTL A
ONTARIO

43°40'36.000" N
79°37'50.000" W
173.40 m
6158731
71624
YYZ

Download Data

Hourly Data (October 2014)
Hourly Data Report for October 20, 2014
Temp Definition
°C
Dew Point Temp Definition
°C
Rel Hum Definition
%
Wind Dir Definition
10's deg

Wind Spd Definition
km/h
Visibility Definition
km
Stn Press Definition
kPa
Hmdx Definition


Wind Chill Definition


Weather Definition


TIME
00:00 Legend Double Dagger 5.8 1.5 74 24 5 24.1 99.46     LegendNANA
01:00 Legend Double Dagger 6.0 1.9 75 24 5 24.1 99.46     Cloudy
02:00 Legend Double Dagger 6.3 2.0 74 18 5 24.1 99.40     LegendNANA
03:00 Legend Double Dagger 6.1 2.2 76 13 5 24.1 99.31     LegendNANA
04:00 Legend Double Dagger 5.9 2.6 79 16 11 24.1 99.26     Cloudy
05:00 Legend Double Dagger 6.4 3.4 81 16 9 24.1 99.20     LegendNANA
06:00 Legend Double Dagger 6.7 4.2 84 12 5 24.1 99.16     Rain Showers
07:00 Legend Double Dagger 6.8 4.8 87 5 4 9.7 99.16     Rain Showers,Fog
08:00 Legend Double Dagger 6.8 5.3 90 9 7 19.3 99.14     LegendNANA
09:00 Legend Double Dagger 7.5 5.8 89 12 7 24.1 99.10     LegendNANA
10:00 Legend Double Dagger 8.6 6.2 85 13 9 24.1 99.05     Cloudy
11:00 Legend Double Dagger 9.5 6.8 83 13 10 19.3 98.99     LegendNANA
12:00 Legend Double Dagger 10.6 7.5 81 17 7 16.1 98.91     LegendNANA
13:00 Legend Double Dagger 11.8 8.3 79 17 7 19.3 98.84     Cloudy
14:00 Legend Double Dagger 10.9 8.8 87 9 7 4.8 98.80     Rain Showers,Fog
15:00 Legend Double Dagger 10.6 8.9 89 7 4 16.1 98.80     Rain Showers
16:00 Legend Double Dagger 10.8 9.2 90 9 7 9.7 98.77     Rain Showers,Fog
17:00 Legend Double Dagger 11.1 10.0 93 18 5 6.4 98.79     Rain Showers,Fog
18:00 Legend Double Dagger 11.4 10.3 93 36 2 9.7 98.82     Rain Showers,Fog
19:00 Legend Double Dagger 11.4 10.5 94 36 2 9.7 98.84     Rain,Fog
20:00 Legend Double Dagger 11.3 10.1 92 24 4 16.1 98.85     LegendNANA
21:00 Legend Double Dagger 11.2 9.5 89 28 7 16.1 98.85     LegendNANA
22:00 Legend Double Dagger 10.8 9.2 90 29 9 16.1 98.83     Cloudy
23:00 Legend Double Dagger 10.6 9.0 90 27 6 12.9 98.84     LegendNANA

Notes on Data Quality.

Legend

  • E = Estimated
  • M = Missing
  • NA = Not Available
  • ‡ = Partner data that is not subject to review by the National Climate Archives
Date modified: